TimeCST,TemperatureF,Dew PointF,Humidity,Sea Level PressureIn,VisibilityMPH,Wind Direction,Wind SpeedMPH,Gust SpeedMPH,PrecipitationIn,Events,Conditions,WindDirDegrees,DateUTC
12:53 AM,32.0,28.0,85,30.14,10.0,NW,9.2,-,N/A,,Clear,310,2013-02-02 06:53:00
1:53 AM,32.0,28.0,85,30.16,10.0,WNW,8.1,-,N/A,,Mostly Cloudy,290,2013-02-02 07:53:00
2:53 AM,30.9,28.0,89,30.16,10.0,WSW,8.1,-,N/A,,Overcast,250,2013-02-02 08:53:00
3:53 AM,32.0,28.9,88,30.15,10.0,WSW,9.2,-,N/A,,Mostly Cloudy,250,2013-02-02 09:53:00
4:53 AM,33.1,28.9,85,30.17,10.0,West,11.5,-,N/A,,Scattered Clouds,270,2013-02-02 10:53:00
5:53 AM,32.0,28.4,87,30.14,10.0,West,11.5,-,N/A,,Mostly Cloudy,270,2013-02-02 11:53:00
6:53 AM,32.0,28.9,88,30.19,10.0,West,12.7,-,N/A,,Overcast,270,2013-02-02 12:53:00
7:53 AM,30.0,27.0,88,30.21,10.0,West,10.4,-,N/A,,Clear,260,2013-02-02 13:53:00
8:53 AM,34.0,28.9,82,30.21,10.0,West,8.1,-,N/A,,Partly Cloudy,270,2013-02-02 14:53:00
9:53 AM,37.9,30.9,76,30.21,10.0,West,9.2,-,N/A,,Clear,260,2013-02-02 15:53:00
10:53 AM,42.1,32.0,67,30.20,10.0,WSW,11.5,-,N/A,,Clear,250,2013-02-02 16:53:00
11:53 AM,48.0,32.0,54,30.18,10.0,West,15.0,-,N/A,,Clear,260,2013-02-02 17:53:00
12:53 PM,52.0,27.0,38,30.15,10.0,NW,24.2,31.1,N/A,,Partly Cloudy,310,2013-02-02 18:53:00
1:53 PM,54.0,25.0,33,30.12,10.0,WNW,24.2,38.0,N/A,,Scattered Clouds,300,2013-02-02 19:53:00
2:53 PM,55.0,24.1,30,30.10,10.0,WNW,25.3,32.2,N/A,,Clear,300,2013-02-02 20:53:00
3:53 PM,55.0,21.0,27,30.09,10.0,NW,25.3,34.5,N/A,,Clear,310,2013-02-02 21:53:00
4:53 PM,53.1,21.9,30,30.11,10.0,NW,27.6,36.8,N/A,,Partly Cloudy,320,2013-02-02 22:53:00
5:53 PM,48.9,23.0,36,30.12,10.0,WNW,19.6,-,N/A,,Partly Cloudy,300,2013-02-02 23:53:00
6:53 PM,46.9,23.0,39,30.14,10.0,NW,19.6,-,N/A,,Scattered Clouds,320,2013-02-03 00:53:00
7:53 PM,45.0,25.0,46,30.17,10.0,NW,18.4,-,N/A,,Partly Cloudy,320,2013-02-03 01:53:00
8:53 PM,39.0,26.1,60,30.19,10.0,WNW,11.5,-,N/A,,Clear,300,2013-02-03 02:53:00
9:53 PM,39.9,26.1,58,30.21,10.0,NW,16.1,-,N/A,,Clear,320,2013-02-03 03:53:00
10:53 PM,36.0,26.1,67,30.24,10.0,NW,9.2,-,N/A,,Clear,310,2013-02-03 04:53:00
11:53 PM,35.1,26.1,70,30.25,10.0,NW,12.7,-,N/A,,Clear,320,2013-02-03 05:53:00